Location: Il Cristo
(44.7500°N, 11.0000°E)
Time: 00:26:42
(UTC+00:00)

Daily predictions for brighter satellites

Satellite Brightness Start Highest point End
(mag) Time Altitude Azimuth Time Altitude Azimuth Time Altitude Azimuth
Cosmos 2369 Rocket 4.1 02:52:23 26° E 02:52:23 26° E 02:55:54 10° NE
USA 215 4.4 02:54:28 10° ENE 02:59:30 34° NNE 02:59:30 34° NNE
Cosmos 1943 Rocket 4.2 03:12:50 20° NNE 03:12:50 20° NNE 03:14:28 10° NNE
CENTAUR R/B 3.1 03:44:24 45° N 03:44:24 45° N 03:49:55 10° NNE
Meteor 2-13 Rocket 4.5 03:45:46 10° S 03:51:50 75° E 03:57:55 10° NNE
ATLAS 5 CENTAUR R/B 4.3 03:54:14 10° SSE 03:56:27 15° ESE 03:58:46 10° ENE
NOSS 3-2 (A) 4.4 04:04:15 32° NNW 04:04:15 32° NNW 04:09:02 10° NNE
Cosmos 1486 Rocket 3.9 04:03:40 78° SSW 04:04:02 89° SE 04:09:22 10° NNE
Cosmos 1151 Rocket 3.3 04:05:31 67° ESE 04:05:31 67° ESE 04:09:38 10° SSE
SL-8 R/B 3.7 04:07:03 78° E 04:07:03 78° E 04:11:33 10° ESE
Meteor 2-6 Rocket 4.4 04:05:33 19° N 04:09:25 65° ENE 04:14:46 10° SSE
DNEPR-1 R/B 3.9 04:11:35 70° NNW 04:12:12 86° NE 04:17:57 10° SE
NOSS 3-2 (C) 3.8 04:12:49 45° NNW 04:12:49 45° NNW 04:18:40 10° NNE
ATLAS 3B R/B 4.5 04:08:14 10° S 04:13:41 29° ESE 04:19:20 10° NE
Okean 3 Rocket 3.9 04:12:29 10° S 04:16:59 69° E 04:21:32 10° NNE
Cosmos 1833 4.3 04:15:45 35° NNW 04:18:16 78° ENE 04:24:01 10° SSE
Cosmos 1766 Rocket 3.5 04:15:45 10° S 04:20:05 83° E 04:24:26 10° N
BREEZE-M DEB (TANK) 3.4 04:21:03 49° WSW 04:21:59 57° SSW 04:35:23 10° SE
SL-27 R/B 4.1 04:21:23 25° NNE 04:22:34 32° ENE 04:25:46 10° SE
Envisat 3.0 04:19:24 10° NNE 04:24:31 81° ESE 04:29:36 10° S
Cosmos 1328 Rocket 3.5 04:25:33 36° N 04:27:19 82° E 04:31:40 10° S
Cosmos 2263 4.1 04:24:35 25° SW 04:28:02 72° WNW 04:33:49 10° NNE
Cosmos 2098 Rocket 3.1 04:32:19 49° SW 04:33:13 61° WNW 04:38:22 10° N
Cosmos 2369 Rocket 2.3 04:34:16 44° W 04:34:59 47° WNW 04:40:25 10° NNE
Cosmos 2344 4.2 04:34:44 30° NW 04:36:21 33° NNW 04:43:38 10° NNE
Meteor 1-10 Rocket 4.2 04:31:19 10° N 04:36:54 81° E 04:42:27 10° SSE
SL-19 R/B 4.3 04:32:52 10° S 04:38:20 57° WSW 04:41:27 26° NW
Cosmos 2142 Rocket 4.4 04:32:11 10° NNW 04:38:30 71° W 04:44:51 10° S
Cosmos 1656 Rocket 3.6 04:37:56 28° SW 04:40:41 56° WNW 04:46:05 10° NNE
USA 238 DEB 4.3 04:39:34 32° NW 04:40:42 34° NW 04:46:57 10° NNE
USA 238 4.3 04:39:38 32° NW 04:40:49 34° NW 04:47:03 10° NNE
COSMO-SKYMED 1 2.4 04:36:37 10° S 04:40:56 70° WSW 04:42:52 32° NNW
USA 215 3.4 04:36:12 10° ESE 04:42:41 71° NNE 04:46:50 24° NW
Cosmos 2279 Rocket 3.9 04:36:44 10° NNW 04:42:53 68° W 04:49:01 10° S
H-2A R/B 4.3 04:40:56 10° N 04:46:53 21° SW 04:48:16 10° SSW
Meteor 1-31 Rocket 2.6 04:41:16 10° N 04:45:11 79° WNW 04:49:06 10° SSW
BREEZE-M DEB (TANK) 4.1 04:30:47 10° SW 04:45:52 64° SSE 04:49:47 10° ENE
DELTA 2 R/B (1) 4.2 04:46:42 25° WSW 04:49:42 50° S 04:55:03 10° ESE
Nadezhda 4 Rocket 4.2 04:46:02 10° S 04:52:09 71° E 04:58:22 10° NNE
CZ-4B R/B 4.3 04:50:34 10° E 04:52:23 14° ENE 04:54:12 10° NNE
CZ-2C R/B 2.7 04:47:06 10° S 04:52:30 59° W 04:57:38 11° NNW
Cosmos 1408 Rocket 3.5 04:48:15 10° S 04:52:33 86° E 04:56:53 10° N
Cosmos 1943 Rocket 3.7 04:54:24 18° NNW 04:54:24 18° NNW 04:57:14 10° N
CBERS 1 LM4 rocket 4.3 04:48:30 10° N 04:53:22 70° WNW 04:58:24 10° SSW
CZ-4B R/B 4.0 04:49:47 10° N 04:54:12 64° WNW 04:58:37 10° SSW
Cosmos 1354 Rocket 4.0 04:53:48 10° SSW 04:59:01 64° WNW 05:04:18 10° NNE
Cosmos 1743 Rocket 4.2 04:58:03 10° S 05:02:21 58° E 05:06:39 10° NNE
Meteor 2-15 4.3 04:58:09 10° NNW 05:04:11 70° W 05:10:11 10° S
Cosmos 2228 Rocket 4.4 05:00:25 10° N 05:04:42 41° ENE 05:08:59 10° SSE
Cosmos 2227 Rocket 4.3 05:02:50 10° N 05:07:04 21° NE 05:11:15 10° E
Landsat 5 3.9 05:04:29 10° S 05:08:50 47° W 05:12:32 14° NNW
Cosmos 1515 Rocket 3.5 05:06:57 10° NNW 05:11:17 62° W 05:15:32 10° S
SJ 16-02 1.3 05:07:37 10° SSW 05:12:00 89° ESE 05:16:24 10° NNE
SJ-7 4.4 05:09:14 10° NNE 05:13:27 83° WNW 05:17:34 10° SSW
ADEOS 3.5 05:08:16 10° N 05:13:31 75° WNW 05:18:42 10° SSW
Meteor 2-19 Rocket 4.4 05:12:33 10° SSW 05:18:34 67° W 05:24:37 10° N
BREEZE-M DEB (TANK) 3.9 05:16:52 23° NW 05:18:53 50° NNE 05:27:47 10° E
Cosmos 1602 4.4 05:18:10 10° S 05:21:54 57° E 05:25:39 10° NNE
CZ-4C R/B 3.5 05:22:10 10° SSW 05:25:00 31° W 05:26:27 20° NW
NOAA 11 4.1 05:19:38 10° N 05:25:05 67° WNW 05:30:31 10° SSW
Cosmos 1538 Rocket 4.1 05:21:54 10° NNW 05:27:10 81° ENE 05:32:21 10° SSE
COSMOS 2487 2.5 05:23:49 10° NNW 05:27:11 73° ENE 05:30:31 10° SSE
Cosmos 1500 Rocket 3.5 05:25:40 10° SSW 05:30:05 67° W 05:34:34 10° N
CZ-2C R/B 2.9 05:27:47 10° N 05:32:40 71° WNW 05:37:46 10° SSW
CENTAUR R/B 4.1 05:31:36 14° WNW 05:35:26 21° NNW 05:41:03 10° NNE
SMAP 3.4 05:30:51 10° NNE 05:35:31 70° ESE 05:40:09 10° S
Sich 1 3.5 05:32:01 10° S 05:36:15 65° E 05:40:29 10° NNE
ATLAS 5 CENTAUR R/B 1.4 05:36:38 10° SW 05:40:24 52° NW 05:44:39 10° NNE
CZ-4B R/B 2.7 05:37:04 10° N 05:40:33 52° WNW 05:44:03 10° SSW
H-2A R/B 3.5 05:36:20 10° NNE 05:40:57 40° E 05:45:35 10° SSE
Cosmos 1805 Rocket 3.5 05:37:52 10° S 05:42:15 84° W 05:46:39 10° N
Meteor 1-27 Rocket 4.0 05:36:52 10° NNW 05:42:16 47° W 05:47:46 10° SSW
H-2A R/B 2.0 05:38:34 10° S 05:42:49 68° WSW 05:47:12 10° NNW
Cosmos 1500 3.6 05:40:18 10° S 05:44:05 68° E 05:47:51 10° NNE
Meteor PRIRODA 4.0 05:41:58 10° N 05:45:23 39° WNW 05:48:47 10° SW
Cosmos 1777 Rocket 4.3 05:41:38 10° SW 05:46:37 45° WNW 05:51:39 10° N
USA 32 4.1 05:44:24 10° NNW 05:49:35 62° W 05:54:45 10° S
Lacrosse 4 Rocket 3.7 05:48:59 10° N 05:52:21 20° NE 05:55:43 10° E
Cosmos 1515 4.0 05:50:53 10° NNW 05:54:32 45° W 05:58:10 10° SSW
Cosmos 1340 Rocket 3.4 05:51:06 10° SW 05:54:42 34° WNW 05:58:23 10° N
SL-27 R/B 4.2 05:54:57 10° WNW 05:57:19 17° W 05:59:39 10° SW
Cosmos 2026 Rocket 4.0 05:51:42 10° SSW 05:58:02 76° W 06:04:20 10° N
Okean O Rocket 3.8 05:54:51 10° NNE 05:58:48 31° E 06:02:43 10° SSE
Cosmos 923 Rocket 4.3 05:57:04 10° NNW 06:02:26 73° ENE 06:07:45 10° SSE
Envisat 4.5 06:00:03 10° NNW 06:02:52 15° WNW 06:05:41 10° W
ATLAS 3B R/B 2.7 05:57:26 10° SW 06:03:54 62° NW 06:10:43 10° NNE
NOAA 6 4.0 05:59:08 10° N 06:04:15 72° WNW 06:09:20 10° SSW
Cosmos 1553 Rocket 4.1 06:03:15 10° N 06:09:21 81° E 06:15:28 10° S
Meteor 1-25 Rocket 4.4 06:04:09 10° SSW 06:09:37 53° WNW 06:15:05 10° N
Cosmos 158 Rocket 4.5 06:06:39 10° NW 06:11:31 43° WSW 06:16:27 10° S
